Cape Cod CGAS, MA

7:11 PM EDT on March 23, 2017 (GMT -0400)
Cape Cod Coast Guard Air Station

Weather History for KFMH - April, 2014

Change the Weather History Date:

Saturday, April 12, 2014

  Actual Average Record
Temperature  
Mean Temperature 54 °F -  
Max Temperature 66 °F 51 °F 66 °F (2014)
Min Temperature 43 °F 35 °F 28 °F (1998)
Degree Days  
Heating Degree Days 10    
Growing Degree Days 4 (Base 50)    
Moisture  
Dew Point 37 °F    
Average Humidity 58    
Maximum Humidity 93    
Minimum Humidity 21    
Precipitation  
Precipitation 0.00 in - - ()
Sea Level Pressure  
Sea Level Pressure 30.12 in    
Wind  
Wind Speed 7 mph (West)    
Max Wind Speed 17 mph    
Max Gust Speed 22 mph    
Visibility 10 miles    
Events Rain    
Averages and records for this station are not official NWS values.
T = Trace of Precipitation, MM = Missing Value Source: NWS Daily Summary

Daily Weather History Graph

Daily Weather History Graph

Search for Another Location

Airport or City:

Trip Planner

Search our weather history database for the weather conditions in past years. The results will help you decide how hot, cold, wet, or windy it might be!

Date:

Astronomy

Apr. 12, 2014 Rise Set
Actual Time 6:06 AM EDT 7:19 PM EDT
Civil Twilight 5:38 AM EDT 7:48 PM EDT
Nautical Twilight 5:04 AM EDT 8:22 PM EDT
Astronomical Twilight 4:28 AM EDT 8:58 PM EDT
Moon 4:53 PM EDT (4/12) 4:34 AM EDT (4/12)
Length of Visible Light 14h 09m
Length of Day
13h 12m
Waxing Gibbous, 93% of the Moon is Illuminated
Apr 12
Waxing Gibbous
Apr 15
Full
Apr 22
Last Quarter
Apr 29
New
May 6
First Quarter

Hourly Weather History & Observations

Time (EDT) Temp. Windchill Dew Point Humidity Pressure Visibility Wind Dir Wind Speed Gust Speed Precip Events Conditions
12:15 AM 46.4 °F 44.3 °F 42.8 °F 87% 30.01 in 10.0 mi SW 4.6 mph - N/A   Overcast
12:35 AM 46.4 °F 44.3 °F 42.8 °F 87% 30.01 in 10.0 mi WSW 4.6 mph - N/A   Overcast
12:55 AM 46.4 °F - 42.8 °F 87% 29.99 in 9.0 mi Calm Calm 11.5 mph N/A   Mostly Cloudy
1:15 AM 46.4 °F - 42.8 °F 87% 29.98 in 10.0 mi Calm Calm - N/A   Overcast
1:35 AM 46.4 °F 44.3 °F 44.6 °F 93% 29.99 in 10.0 mi West 4.6 mph - N/A   Overcast
1:55 AM 46.4 °F 44.3 °F 44.6 °F 93% 29.98 in 10.0 mi WSW 4.6 mph - N/A   Overcast
2:15 AM 46.4 °F 44.3 °F 44.6 °F 93% 29.98 in 9.0 mi SW 4.6 mph - N/A   Overcast
2:35 AM 46.4 °F - 44.6 °F 93% 29.97 in 10.0 mi Calm Calm - N/A   Overcast
2:55 AM 46.4 °F - 44.6 °F 93% 29.97 in 10.0 mi Calm Calm - N/A   Overcast
3:15 AM 46.4 °F - 42.8 °F 87% 29.97 in 10.0 mi Calm Calm - N/A   Overcast
3:35 AM 46.4 °F - 44.6 °F 93% 29.97 in 10.0 mi Calm Calm - N/A   Overcast
3:55 AM 48.2 °F - 44.6 °F 87% 29.98 in 10.0 mi West 4.6 mph - N/A   Overcast
4:15 AM 48.2 °F - 44.6 °F 87% 29.99 in 10.0 mi WNW 4.6 mph - N/A   Overcast
4:35 AM 46.4 °F 41.9 °F 42.8 °F 87% 30.01 in 9.0 mi WNW 9.2 mph - N/A   Overcast
4:55 AM 46.4 °F 43.5 °F 44.6 °F 93% 30.01 in 7.0 mi NW 5.8 mph - N/A Rain Light Rain
5:15 AM 46.4 °F 42.9 °F 44.6 °F 93% 30.02 in 9.0 mi NW 6.9 mph - N/A   Overcast
5:35 AM 48.2 °F - 44.6 °F 87% 30.03 in 10.0 mi NW 4.6 mph - N/A   Overcast
5:55 AM 48.2 °F - 44.6 °F 87% 30.04 in 10.0 mi NNW 8.1 mph - N/A   Overcast
6:15 AM 48.2 °F - 46.4 °F 93% 30.05 in 10.0 mi NNW 5.8 mph - N/A   Overcast
6:35 AM 50.0 °F - 46.4 °F 87% 30.06 in 10.0 mi WNW 3.5 mph - N/A   Overcast
6:55 AM 48.2 °F - 46.4 °F 93% 30.07 in 10.0 mi NW 4.6 mph - N/A   Mostly Cloudy
7:15 AM 50.0 °F - 46.4 °F 87% 30.09 in 10.0 mi NW 4.6 mph - N/A   Partly Cloudy
7:35 AM 50.0 °F - 46.4 °F 87% 30.11 in 10.0 mi NW 9.2 mph - N/A   Clear
7:55 AM 51.8 °F - 46.4 °F 82% 30.11 in 10.0 mi NW 10.4 mph - N/A   Clear
8:15 AM 51.8 °F - 46.4 °F 82% 30.12 in 10.0 mi NW 8.1 mph 13.8 mph N/A   Clear
8:35 AM 53.6 °F - 44.6 °F 72% 30.12 in 10.0 mi NW 9.2 mph 16.1 mph N/A   Clear
8:55 AM 55.4 °F - 42.8 °F 63% 30.12 in 10.0 mi NNW 11.5 mph - N/A   Clear
9:15 AM 57.2 °F - 42.8 °F 59% 30.12 in 10.0 mi WNW 10.4 mph - N/A   Clear
9:35 AM 57.2 °F - 39.2 °F 51% 30.13 in 10.0 mi WNW 13.8 mph - N/A   Clear
9:55 AM 59.0 °F - 37.4 °F 45% 30.14 in 10.0 mi NW 12.7 mph - N/A   Clear
10:15 AM 60.8 °F - 35.6 °F 39% 30.14 in 10.0 mi NNW 10.4 mph 18.4 mph N/A   Clear
10:35 AM 60.8 °F - 32.0 °F 34% 30.15 in 10.0 mi NNW 11.5 mph - N/A   Clear
10:55 AM 62.6 °F - 28.4 °F 27% 30.16 in 10.0 mi WNW 17.3 mph - N/A   Clear
11:15 AM 62.6 °F - 24.8 °F 24% 30.17 in 10.0 mi WNW 13.8 mph - N/A   Clear
11:35 AM 62.6 °F - 24.8 °F 24% 30.17 in 10.0 mi West 9.2 mph 16.1 mph N/A   Clear
11:55 AM 62.6 °F - 26.6 °F 26% 30.17 in 10.0 mi West 9.2 mph 17.3 mph N/A   Clear
12:15 PM 64.4 °F - 28.4 °F 26% 30.17 in 10.0 mi West 10.4 mph 19.6 mph N/A   Clear
12:35 PM 64.4 °F - 26.6 °F 24% 30.17 in 10.0 mi WNW 10.4 mph 19.6 mph N/A   Clear
12:55 PM 64.4 °F - 26.6 °F 24% 30.17 in 10.0 mi West 15.0 mph - N/A   Clear
1:15 PM 64.4 °F - 26.6 °F 24% 30.16 in 10.0 mi WNW 12.7 mph 18.4 mph N/A   Clear
1:35 PM 66.2 °F - 24.8 °F 21% 30.15 in 10.0 mi NW 9.2 mph 17.3 mph N/A   Clear
1:55 PM 66.2 °F - 24.8 °F 21% 30.14 in 10.0 mi WNW 12.7 mph 19.6 mph N/A   Clear
2:15 PM 66.2 °F - 26.6 °F 23% 30.13 in 10.0 mi West 10.4 mph 17.3 mph N/A   Clear
2:35 PM 66.2 °F - 24.8 °F 21% 30.12 in 10.0 mi NW 8.1 mph 13.8 mph N/A   Clear
2:55 PM 66.2 °F - 24.8 °F 21% 30.12 in 10.0 mi Variable 10.4 mph 21.9 mph N/A   Clear
3:15 PM 64.4 °F - 32.0 °F 30% 30.12 in 10.0 mi SSE 11.5 mph 18.4 mph N/A   Clear
3:35 PM 64.4 °F - 32.0 °F 30% 30.12 in 10.0 mi SSE 11.5 mph - N/A   Clear
3:55 PM 62.6 °F - 32.0 °F 32% 30.12 in 10.0 mi South 16.1 mph - N/A   Clear
4:15 PM 60.8 °F - 32.0 °F 34% 30.12 in 10.0 mi South 15.0 mph - N/A   Clear
4:35 PM 62.6 °F - 32.0 °F 32% 30.13 in 10.0 mi SW 10.4 mph - N/A   Clear
4:55 PM 62.6 °F - 28.4 °F 27% 30.15 in 10.0 mi SW 12.7 mph - N/A   Clear
5:15 PM 60.8 °F - 28.4 °F 29% 30.15 in 10.0 mi SW 16.1 mph - N/A   Clear
5:35 PM 60.8 °F - 26.6 °F 27% 30.16 in 10.0 mi SW 17.3 mph - N/A   Clear
5:55 PM 60.8 °F - 28.4 °F 29% 30.16 in 10.0 mi SW 11.5 mph 19.6 mph N/A   Clear
6:15 PM 60.8 °F - 30.2 °F 31% 30.17 in 10.0 mi South 8.1 mph - N/A   Clear
6:35 PM 59.0 °F - 32.0 °F 36% 30.18 in 10.0 mi South 5.8 mph - N/A   Clear
7:15 PM 53.6 °F - 33.8 °F 47% 30.20 in 10.0 mi South 8.1 mph - N/A   Clear
7:35 PM 51.8 °F - 33.8 °F 50% 30.22 in 10.0 mi WSW 13.8 mph - N/A   Clear
7:55 PM 50.0 °F - 37.4 °F 62% 30.21 in 10.0 mi SW 11.5 mph - N/A   Clear
8:15 PM 50.0 °F - 37.4 °F 62% 30.23 in 10.0 mi SW 9.2 mph 16.1 mph N/A   Partly Cloudy
8:35 PM 50.0 °F - 37.4 °F 62% 30.24 in 10.0 mi WSW 10.4 mph - N/A   Partly Cloudy
8:55 PM 50.0 °F - 35.6 °F 58% 30.24 in 10.0 mi WSW 10.4 mph - N/A   Clear
9:15 PM 50.0 °F - 35.6 °F 58% 30.24 in 10.0 mi WSW 9.2 mph - N/A   Clear
9:35 PM 50.0 °F - 33.8 °F 54% 30.24 in 10.0 mi WSW 9.2 mph - N/A   Clear
9:55 PM 50.0 °F - 32.0 °F 50% 30.24 in 10.0 mi SW 8.1 mph - N/A   Scattered Clouds
10:15 PM 48.2 °F - 32.0 °F 54% 30.24 in 10.0 mi WSW 6.9 mph - N/A   Scattered Clouds
10:35 PM 48.2 °F - 32.0 °F 54% 30.24 in 10.0 mi WSW 5.8 mph - N/A   Scattered Clouds
10:55 PM 46.4 °F 44.3 °F 33.8 °F 62% 30.24 in 10.0 mi WSW 4.6 mph - N/A   Partly Cloudy
11:15 PM 46.4 °F 45.2 °F 33.8 °F 62% 30.25 in 10.0 mi SW 3.5 mph - N/A   Clear
11:35 PM 46.4 °F 42.9 °F 35.6 °F 66% 30.24 in 10.0 mi SSW 6.9 mph - N/A   Clear
11:55 PM 44.6 °F 41.4 °F 35.6 °F 71% 30.25 in 10.0 mi SSW 5.8 mph - N/A   Partly Cloudy